Weather reports worldwide

Advertisment
Kinlochewe, United Kingdom (99092): temperature & dewpoint: 21.04.2017 00:00:00 - 27.04.2017 00:00:00 (BST)Kinlochewe, United Kingdom (99092): temperature -20cm: 21.04.2017 00:00:00 - 27.04.2017 00:00:00 (BST)Kinlochewe, United Kingdom (99092): precipitation: 21.04.2017 00:00:00 - 27.04.2017 00:00:00 (BST)
Date & Time tt [°C] td [°C] tt -20cm [°C] rr [mm]
27.04.2017 00:00:00 - - - -
26.04.2017 23:00:00 6,7 6,0 - 0,4
26.04.2017 22:00:00 6,4 6,0 - 0,8
26.04.2017 21:00:00 7,1 4,5 - 0,0
26.04.2017 20:00:00 8,7 3,8 - 0,0
26.04.2017 19:00:00 9,0 3,6 - 0,0
26.04.2017 18:00:00 9,2 2,4 - 0,0
26.04.2017 17:00:00 10,6 3,9 - 0,0
26.04.2017 16:00:00 8,8 3,1 - 0,0
26.04.2017 15:00:00 8,0 3,5 - 0,2
26.04.2017 14:00:00 7,6 2,1 - 0,0
26.04.2017 13:00:00 7,2 1,1 - 0,0
26.04.2017 12:00:00 6,3 2,1 - 0,0
26.04.2017 11:00:00 5,2 2,5 - 0,0
26.04.2017 10:00:00 4,7 1,9 7,4 0,0
26.04.2017 09:00:00 4,2 1,7 - 0,0
26.04.2017 08:00:00 3,3 2,2 - 0,0
26.04.2017 07:00:00 2,4 1,6 - 0,4
26.04.2017 06:00:00 1,9 0,6 - 0,0
26.04.2017 05:00:00 2,3 1,0 - 0,2
26.04.2017 04:00:00 1,6 0,5 - 0,0
26.04.2017 03:00:00 1,6 -1,1 - 0,0
26.04.2017 02:00:00 1,2 -1,1 - 0,0
26.04.2017 01:00:00 3,1 -2,6 - 0,0
26.04.2017 00:00:00 2,2 0,0 - 0,2
25.04.2017 23:00:00 3,4 -1,6 - 0,2
25.04.2017 22:00:00 3,8 -2,3 - 0,0
25.04.2017 21:00:00 2,8 0,5 - 0,0
25.04.2017 20:00:00 4,0 -0,4 - 0,0
25.04.2017 19:00:00 4,2 1,4 - 0,0
25.04.2017 18:00:00 3,1 0,7 - 0,4
25.04.2017 17:00:00 7,3 -0,8 - 0,2
25.04.2017 16:00:00 5,9 -1,3 - 0,2
25.04.2017 15:00:00 7,0 1,8 - 0,2
25.04.2017 14:00:00 6,1 -0,8 - 1,8
25.04.2017 13:00:00 2,4 -0,4 - 0,4
25.04.2017 12:00:00 3,6 -0,7 - 0,6
25.04.2017 11:00:00 4,7 -0,2 - 0,2
25.04.2017 10:00:00 3,9 0,0 7,7 0,4
25.04.2017 09:00:00 4,8 -0,2 - 0,4
25.04.2017 08:00:00 3,5 -0,7 - 0,2
25.04.2017 07:00:00 4,4 -1,8 - 0,2
25.04.2017 06:00:00 4,0 -1,8 - 0,2
25.04.2017 05:00:00 4,1 -2,3 - 0,2
25.04.2017 04:00:00 3,0 -0,1 - 0,4
25.04.2017 03:00:00 3,0 1,4 - 0,6
25.04.2017 02:00:00 3,3 0,9 - 1,6
25.04.2017 01:00:00 1,6 0,6 - 0,8
25.04.2017 00:00:00 3,5 -2,1 - 0,0
24.04.2017 23:00:00 2,9 -3,4 - 0,0
24.04.2017 22:00:00 3,5 -4,1 - 0,0
24.04.2017 21:00:00 4,1 -1,9 - 0,0
24.04.2017 20:00:00 4,1 0,3 - 1,4
24.04.2017 19:00:00 2,6 2,3 - 1,0
24.04.2017 18:00:00 1,6 0,4 - 1,0
24.04.2017 17:00:00 1,7 0,9 - 0,8
24.04.2017 16:00:00 3,9 2,4 - 0,4
24.04.2017 15:00:00 4,1 -2,0 - 0,0
24.04.2017 14:00:00 4,8 -0,8 - 0,0
24.04.2017 13:00:00 1,4 -1,4 - 1,4
24.04.2017 12:00:00 0,7 -0,1 - 1,8
24.04.2017 11:00:00 2,2 0,5 - 0,8
24.04.2017 10:00:00 3,2 2,1 8,7 1,0
24.04.2017 09:00:00 3,3 1,4 - 0,6
24.04.2017 08:00:00 4,6 -0,4 - 0,0
24.04.2017 07:00:00 4,2 -0,6 - 0,0
24.04.2017 06:00:00 4,4 -0,8 - 0,0
24.04.2017 05:00:00 3,6 0,7 - 0,0
24.04.2017 04:00:00 4,3 1,3 - 0,0
24.04.2017 03:00:00 4,6 2,1 - 0,0
24.04.2017 02:00:00 4,8 2,9 - 0,0
24.04.2017 01:00:00 4,4 2,5 - 0,4
24.04.2017 00:00:00 5,5 2,9 - 0,4
23.04.2017 23:00:00 6,1 4,9 - 2,0
23.04.2017 22:00:00 7,0 6,0 - 3,6
23.04.2017 21:00:00 8,7 5,5 - 1,0
23.04.2017 20:00:00 8,4 6,7 - 1,2
23.04.2017 19:00:00 8,8 6,5 - 0,6
23.04.2017 18:00:00 9,0 5,9 - 0,4
23.04.2017 17:00:00 9,0 6,3 - 0,4
23.04.2017 16:00:00 10,2 3,7 - 0,0
23.04.2017 15:00:00 10,4 3,9 - 0,0
23.04.2017 14:00:00 9,8 2,9 - 0,0
23.04.2017 13:00:00 9,4 2,5 - 0,0
23.04.2017 12:00:00 8,9 3,0 - 0,0
23.04.2017 11:00:00 8,4 4,5 - 0,0
23.04.2017 10:00:00 8,4 3,4 8,7 0,0
23.04.2017 09:00:00 7,6 3,4 - 0,0
23.04.2017 08:00:00 6,1 4,2 - 0,2
23.04.2017 07:00:00 5,6 3,6 - 0,2
23.04.2017 06:00:00 5,3 4,1 - 0,2
23.04.2017 05:00:00 4,9 3,8 - 0,0
23.04.2017 04:00:00 4,0 4,0 - 0,0
23.04.2017 03:00:00 3,5 3,4 - 0,0
23.04.2017 02:00:00 3,6 3,5 - 0,0
23.04.2017 01:00:00 3,5 3,2 - 0,2
23.04.2017 00:00:00 3,8 3,3 - 0,4
22.04.2017 23:00:00 4,1 3,5 - 1,2
22.04.2017 22:00:00 5,2 3,6 - 0,2
22.04.2017 21:00:00 6,2 2,0 - 0,0
22.04.2017 20:00:00 7,3 1,6 - 0,0
22.04.2017 19:00:00 7,6 2,3 - 0,0
22.04.2017 18:00:00 7,6 1,9 - 0,0
22.04.2017 17:00:00 7,9 2,0 - 0,2
22.04.2017 16:00:00 7,6 2,7 - 0,0
22.04.2017 15:00:00 6,4 2,0 - 0,2
22.04.2017 14:00:00 7,5 3,2 - 0,2
22.04.2017 13:00:00 7,8 2,2 - 0,0
22.04.2017 12:00:00 7,5 1,9 - 0,0
22.04.2017 11:00:00 7,6 1,1 - 0,0
22.04.2017 10:00:00 6,8 2,2 8,9 0,0
22.04.2017 09:00:00 6,1 2,7 - 0,0
22.04.2017 08:00:00 5,3 2,7 - 0,0
22.04.2017 07:00:00 4,6 2,7 - 0,0
22.04.2017 06:00:00 4,5 2,6 - 0,0
22.04.2017 05:00:00 4,5 2,8 - 0,0
22.04.2017 04:00:00 4,0 2,9 - 0,0
22.04.2017 03:00:00 3,9 2,9 - 0,0
22.04.2017 02:00:00 4,1 3,4 - 0,0
22.04.2017 01:00:00 4,1 3,5 - 0,2
22.04.2017 00:00:00 4,1 2,8 - 0,6
21.04.2017 23:00:00 5,7 2,0 - 0,0
21.04.2017 22:00:00 6,6 1,4 - 0,0
21.04.2017 21:00:00 6,9 1,4 - 0,0
21.04.2017 20:00:00 7,2 1,2 - 0,0
21.04.2017 19:00:00 7,5 1,5 - 0,0
21.04.2017 18:00:00 8,1 0,7 - 0,0
21.04.2017 17:00:00 8,2 1,6 - 0,0
21.04.2017 16:00:00 8,4 1,9 - 0,2
21.04.2017 15:00:00 8,2 3,5 - 0,2
21.04.2017 14:00:00 9,7 4,2 - 0,0
21.04.2017 13:00:00 8,3 4,8 - 0,2
21.04.2017 12:00:00 8,3 6,6 - 0,4
21.04.2017 11:00:00 7,5 6,5 - 0,8
21.04.2017 10:00:00 7,4 6,2 9,2 0,8
21.04.2017 09:00:00 6,7 5,9 - 1,4
21.04.2017 08:00:00 7,4 6,9 - 2,0
21.04.2017 07:00:00 7,5 6,8 - 3,8
21.04.2017 06:00:00 10,5 8,6 - 1,8
21.04.2017 05:00:00 10,0 8,6 - 1,0
21.04.2017 04:00:00 10,4 9,0 - 1,0
21.04.2017 03:00:00 10,1 9,1 - 1,4
21.04.2017 02:00:00 10,3 9,0 - 0,8
21.04.2017 01:00:00 10,2 9,0 - 0,8
21.04.2017 00:00:00 10,5 8,8 - 0,2

tt = temperature
td = dewpoint
tt -20cm = temperature -20cm
rr = precipitation

Next stations